Waarnemingen

Advertentie
Mijn weer
Wick Airport (AWS), Groot Brittannië (3075): temperatuur & dauwpunt: 12.10.2017 04:00:00 - 18.10.2017 04:00:00 (BST)Wick Airport (AWS), Groot Brittannië (3075): temperatuur -20cm: 12.10.2017 04:00:00 - 18.10.2017 04:00:00 (BST)Wick Airport (AWS), Groot Brittannië (3075): windsnelheid & windstoten: 12.10.2017 04:00:00 - 18.10.2017 04:00:00 (BST)Wick Airport (AWS), Groot Brittannië (3075): windrichting: 12.10.2017 04:00:00 - 18.10.2017 04:00:00 (BST)Wick Airport (AWS), Groot Brittannië (3075): luchtdruk: 12.10.2017 04:00:00 - 18.10.2017 04:00:00 (BST)Wick Airport (AWS), Groot Brittannië (3075): zicht: 12.10.2017 04:00:00 - 18.10.2017 04:00:00 (BST)Wick Airport (AWS), Groot Brittannië (3075): neerslag: 12.10.2017 04:00:00 - 18.10.2017 04:00:00 (BST)
Datum & Tijd tt [°C] td [°C] tt -20cm [°C] ff [km/u] ff [kn] fx [km/u] fx [kn] dd ppp [hPa] vv [km] rr [mm]
18.10.2017 04:00:00 7,8 6,5 - 5 3 - - WZW 1016,7 23 0,0
18.10.2017 03:00:00 7,9 6,7 - 8 4 - - N 1016,7 18 0,0
18.10.2017 02:00:00 7,8 6,7 - 11 6 - - N 1016,8 22 0,0
18.10.2017 01:00:00 8,3 6,3 - 15 8 - - N 1016,7 23 0,0
18.10.2017 00:00:00 8,6 6,6 - 18 10 - - N 1016,5 18 0,0
17.10.2017 23:00:00 8,7 4,6 - 18 10 - - N 1015,8 35 0,0
17.10.2017 22:00:00 8,6 5,6 - 26 14 - - N 1015,3 22 0,0
17.10.2017 21:00:00 8,6 6,1 - 18 10 - - N 1015,1 17 0,0
17.10.2017 20:00:00 8,9 6,3 - 26 14 - - N 1014,2 17 0,0
17.10.2017 19:00:00 9,1 6,5 - 29 16 - - NNW 1013,0 19 0,0
17.10.2017 18:00:00 9,2 6,9 - 35 19 52 28 N 1011,7 12 0,0
17.10.2017 17:00:00 8,9 7,9 - 39 21 54 29 N 1010,2 7 0,2
17.10.2017 16:00:00 9,1 8,7 - 35 19 52 28 N 1008,6 3,7 0,6
17.10.2017 15:00:00 10,2 8,0 - 37 20 55 30 N 1007,1 14 0,0
17.10.2017 14:00:00 9,8 9,0 - 42 23 63 34 N 1005,3 8 0,0
17.10.2017 13:00:00 10,2 9,8 - 41 22 63 34 N 1003,0 9 0,0
17.10.2017 12:00:00 10,3 9,8 - 42 23 59 32 N 1000,6 6 0,0
17.10.2017 11:00:00 10,9 10,4 - 39 21 54 29 N 997,7 9 0,4
17.10.2017 10:00:00 12,2 12,2 10,7 24 13 - - NW 995,5 8 0,0
17.10.2017 09:00:00 11,5 11,5 - 15 8 - - W 993,6 9 0,0
17.10.2017 08:00:00 10,9 10,8 - 18 10 - - WNW 991,9 11 0,8
17.10.2017 07:00:00 10,8 10,3 - 9 5 - - WNW 990,4 9 0,2
17.10.2017 06:00:00 12,1 11,4 - 8 4 - - Z 989,3 8 1,0
17.10.2017 05:00:00 12,2 11,3 - 15 8 - - ZZO 989,2 8 0,6
17.10.2017 04:00:00 12,2 11,4 - 16 9 - - ZZO 989,5 8 0,2
17.10.2017 03:00:00 12,2 11,2 - 22 12 - - ZZO 990,2 7 0,8
17.10.2017 02:00:00 12,5 10,9 - 24 13 - - ZZO 991,1 7 1,0
17.10.2017 01:00:00 12,6 10,4 - 21 11 46 25 ZZO 992,1 9 0,2
17.10.2017 00:00:00 12,9 11,9 - 26 14 - - ZO 992,8 7 0,2
16.10.2017 23:00:00 12,6 12,6 - 22 12 - - OZO 994,4 2,3 1,0
16.10.2017 22:00:00 12,0 12,0 - 34 18 61 33 O 996,2 3,1 1,8
16.10.2017 21:00:00 11,1 11,0 - 48 26 72 39 O 998,1 2,9 1,0
16.10.2017 20:00:00 10,5 10,3 - 52 28 80 43 O 1000,3 2,3 0,4
16.10.2017 19:00:00 10,1 9,7 - 59 32 78 42 O 1002,3 4,7 -
16.10.2017 18:00:00 10,1 8,6 - 50 27 68 37 O 1004,9 4,4 0,0
16.10.2017 17:00:00 10,2 8,5 - 44 24 61 33 O 1007,2 27 0,0
16.10.2017 16:00:00 9,9 8,5 - 41 22 52 28 O 1008,4 35 0,2
16.10.2017 15:00:00 9,5 8,8 - 28 15 - - ONO 1010,0 14 1,4
16.10.2017 14:00:00 9,6 8,8 - 15 8 - - NO 1012,1 40 0,4
16.10.2017 13:00:00 9,4 8,9 - 8 4 - - NO 1013,3 23 1,2
16.10.2017 12:00:00 9,7 8,7 - 5 3 - - Z 1014,3 21 0,6
16.10.2017 11:00:00 9,4 8,9 - 5 3 - - Z 1015,1 9 2,6
16.10.2017 10:00:00 8,6 7,4 10,9 5 3 - - WZW 1015,1 27 0,0
16.10.2017 09:00:00 9,7 7,8 - 2 1 - - NO 1013,8 45 0,0
16.10.2017 08:00:00 9,3 7,1 - 8 4 - - ZZO 1014,3 35 0,0
16.10.2017 07:00:00 9,0 5,8 - 8 4 - - Z 1014,4 45 0,0
16.10.2017 06:00:00 8,6 5,9 - 5 3 - - ZW 1014,3 45 0,0
16.10.2017 05:00:00 8,8 6,1 - 5 3 - - ZZW 1014,0 40 0,0
16.10.2017 04:00:00 8,2 6,1 - 9 5 - - WZW 1013,9 50 0,0
16.10.2017 03:00:00 8,7 6,5 - 8 4 - - ZW 1014,1 50 0,0
16.10.2017 02:00:00 8,8 6,8 - 9 5 - - Z 1013,8 35 0,0
16.10.2017 01:00:00 8,4 6,6 - 9 5 - - W 1013,5 40 0,0
16.10.2017 00:00:00 8,8 6,8 - 9 5 - - ZW 1012,7 50 0,0
15.10.2017 23:00:00 9,2 7,0 - 11 6 - - ZW 1012,5 45 0,0
15.10.2017 22:00:00 8,8 7,1 - 11 6 - - W 1011,5 40 0,0
15.10.2017 21:00:00 9,0 7,6 - 21 11 - - W 1010,4 35 0,0
15.10.2017 20:00:00 9,0 7,5 - 24 13 - - W 1009,6 35 0,0
15.10.2017 19:00:00 9,1 7,6 - 31 17 59 32 W 1008,5 13 0,0
15.10.2017 18:00:00 9,8 7,6 - 50 27 65 35 W 1006,2 45 0,0
15.10.2017 17:00:00 11,3 8,0 - 50 27 81 44 W 1004,5 35 0,0
15.10.2017 16:00:00 13,9 9,0 - 52 28 72 39 WZW 1001,7 50 0,0
15.10.2017 15:00:00 16,9 11,9 - 42 23 61 33 ZZW 999,7 15 0,0
15.10.2017 14:00:00 16,6 12,5 - 41 22 57 31 ZZW 999,1 27 0,0
15.10.2017 13:00:00 16,2 11,8 - 28 15 48 26 Z 1000,2 22 0,0
15.10.2017 12:00:00 15,7 11,7 - 28 15 46 25 Z 1000,3 35 0,0
15.10.2017 11:00:00 15,1 11,4 - 34 18 54 29 Z 1000,8 26 0,0
15.10.2017 10:00:00 14,9 11,3 10,7 35 19 55 30 Z 1000,8 27 0,0
15.10.2017 09:00:00 14,7 11,4 - 28 15 48 26 Z 1001,5 20 0,0
15.10.2017 08:00:00 14,6 11,3 - 29 16 - - Z 1001,6 16 0,0
15.10.2017 07:00:00 14,5 11,2 - 29 16 46 25 Z 1002,2 18 0,0
15.10.2017 06:00:00 14,2 11,0 - 26 14 - - Z 1003,3 20 0,0
15.10.2017 05:00:00 13,9 10,9 - 24 13 - - Z 1004,0 19 0,0
15.10.2017 04:00:00 13,5 11,1 - 29 16 46 25 Z 1004,9 23 0,0
15.10.2017 03:00:00 12,4 10,9 - 24 13 - - ZZO 1006,5 23 0,0
15.10.2017 02:00:00 11,2 9,5 - 22 12 - - OZO 1008,2 40 0,0
15.10.2017 01:00:00 10,3 9,0 - 11 6 - - O 1010,0 24 0,2
15.10.2017 00:00:00 10,1 9,0 - 5 3 - - Z 1011,7 14 0,4
14.10.2017 23:00:00 10,7 9,0 - 15 8 - - Z 1012,7 9 0,2
14.10.2017 22:00:00 10,9 8,0 - 9 5 - - Z 1012,7 18 0,0
14.10.2017 21:00:00 10,7 6,3 - 8 4 - - Z 1013,4 16 0,0
14.10.2017 20:00:00 11,3 5,7 - 18 10 - - ZZW 1013,4 25 0,0
14.10.2017 19:00:00 11,2 5,4 - 16 9 - - ZW 1013,6 28 0,0
14.10.2017 18:00:00 11,4 6,3 - 18 10 - - ZW 1013,2 24 0,0
14.10.2017 17:00:00 12,2 6,6 - 28 15 - - ZW 1012,7 21 0,0
14.10.2017 16:00:00 12,4 6,7 - 28 15 46 25 ZW 1012,3 20 0,0
14.10.2017 15:00:00 12,4 6,7 - 37 20 57 31 ZW 1012,0 30 0,0
14.10.2017 14:00:00 13,2 6,2 - 26 14 54 29 ZW 1011,8 24 0,0
14.10.2017 13:00:00 13,6 5,3 - 34 18 52 28 WZW 1011,2 21 0,0
14.10.2017 12:00:00 12,7 7,5 - 28 15 46 25 ZZW 1010,6 25 0,0
14.10.2017 11:00:00 12,6 6,3 - 28 15 - - ZZW 1010,4 29 0,0
14.10.2017 10:00:00 11,5 5,3 10,9 29 16 - - ZW 1010,0 19 0,0
14.10.2017 09:00:00 10,0 5,4 - 24 13 46 25 ZZW 1009,5 18 0,0
14.10.2017 08:00:00 10,3 5,0 - 31 17 52 28 ZW 1008,8 20 0,0
14.10.2017 07:00:00 10,5 6,5 - 29 16 - - ZW 1008,6 19 0,0
14.10.2017 06:00:00 10,7 6,4 - 29 16 46 25 ZW 1008,6 9 0,0
14.10.2017 05:00:00 11,2 5,5 - 26 14 - - ZZW 1008,1 25 0,0
14.10.2017 04:00:00 10,3 5,9 - 18 10 - - ZZW 1007,6 16 0,0
14.10.2017 03:00:00 9,2 5,9 - 15 8 - - ZZW 1007,5 19 0,0
14.10.2017 02:00:00 10,0 6,7 - 15 8 - - Z 1007,4 14 0,0
14.10.2017 01:00:00 9,8 5,1 - 11 6 - - Z 1006,8 16 0,0
14.10.2017 00:00:00 10,7 5,5 - 13 7 - - ZZW 1006,5 17 0,0
13.10.2017 23:00:00 11,0 6,3 - 22 12 - - ZZW 1005,9 13 0,0
13.10.2017 22:00:00 11,5 6,6 - 22 12 - - Z 1005,4 14 0,0
13.10.2017 21:00:00 11,8 6,8 - 22 12 - - Z 1005,2 13 0,0
13.10.2017 20:00:00 11,7 5,7 - 24 13 50 27 ZW 1005,0 16 0,0
13.10.2017 19:00:00 12,2 5,7 - 37 20 52 28 WZW 1004,2 17 0,0
13.10.2017 18:00:00 13,1 7,6 - 29 16 46 25 WZW 1003,1 15 0,0
13.10.2017 17:00:00 14,7 6,9 - 22 12 - - WZW 1002,8 22 0,0
13.10.2017 16:00:00 15,3 6,2 - 35 19 55 30 W 1002,3 22 0,0
13.10.2017 15:00:00 16,4 8,0 - 26 14 54 29 WZW 1001,4 22 0,0
13.10.2017 14:00:00 16,3 9,6 - 29 16 48 26 ZW 1001,1 21 0,0
13.10.2017 13:00:00 15,1 9,4 - 34 18 46 25 WZW 1000,4 20 0,2
13.10.2017 12:00:00 14,5 14,2 - 11 6 - - W 999,5 45 0,2
13.10.2017 11:00:00 15,3 14,1 - 24 13 - - Z 998,2 6 0,0
13.10.2017 10:00:00 15,7 14,0 10,7 29 16 46 25 Z 997,9 28 0,0
13.10.2017 09:00:00 15,6 13,9 - 29 16 50 27 ZZW 997,4 30 0,0
13.10.2017 08:00:00 15,0 13,7 - 35 19 55 30 Z 996,6 27 0,2
13.10.2017 07:00:00 15,9 13,1 - 34 18 50 27 ZZW 997,2 40 0,0
13.10.2017 06:00:00 14,8 12,4 - 26 14 - - Z 997,7 45 0,0
13.10.2017 05:00:00 14,3 11,7 - 37 20 52 28 Z 997,7 30 0,0
13.10.2017 04:00:00 14,5 11,3 - 39 21 55 30 Z 997,9 35 0,0
13.10.2017 03:00:00 14,1 11,0 - 26 14 55 30 Z 998,1 26 0,0
13.10.2017 02:00:00 13,4 10,3 - 26 14 - - Z 999,1 20 0,0
13.10.2017 01:00:00 12,9 9,6 - 28 15 52 28 ZZO 1000,7 26 0,0
13.10.2017 00:00:00 12,9 8,6 - 34 18 52 28 Z 1001,4 30 0,0
12.10.2017 23:00:00 12,6 8,1 - 29 16 55 30 ZZO 1001,7 30 0,0
12.10.2017 22:00:00 12,3 8,4 - 34 18 54 29 ZZO 1003,1 35 0,0
12.10.2017 21:00:00 12,5 8,0 - 35 19 52 28 Z 1003,8 40 0,0
12.10.2017 20:00:00 12,4 8,8 - 26 14 - - ZZO 1005,0 26 0,0
12.10.2017 19:00:00 11,9 8,6 - 18 10 - - Z 1005,8 28 0,0
12.10.2017 18:00:00 11,7 8,6 - 18 10 - - Z 1006,3 35 0,0
12.10.2017 17:00:00 11,1 7,1 - 15 8 - - Z 1006,7 30 0,0
12.10.2017 16:00:00 10,6 7,0 - 11 6 - - ZZW 1007,3 35 0,0
12.10.2017 15:00:00 10,5 6,4 - 16 9 - - ZW 1007,4 45 0,0
12.10.2017 14:00:00 10,9 6,6 - 29 16 - - WZW 1007,1 20 0,0
12.10.2017 13:00:00 11,2 6,5 - 24 13 - - WZW 1006,5 21 0,0
12.10.2017 12:00:00 11,1 6,4 - 29 16 - - WZW 1005,6 19 0,0
12.10.2017 11:00:00 9,9 6,0 - 21 11 - - ZW 1005,0 29 0,0
12.10.2017 10:00:00 9,1 5,9 10,9 18 10 - - ZW 1004,0 23 0,0
12.10.2017 09:00:00 7,1 5,0 - 22 12 - - WZW 1003,2 35 0,0
12.10.2017 08:00:00 6,5 4,4 - 26 14 54 29 WZW 1002,1 45 0,0
12.10.2017 07:00:00 6,5 4,7 - 21 11 - - ZW 1001,1 40 0,0
12.10.2017 06:00:00 6,5 4,4 - 24 13 - - WZW 1000,3 50 0,0
12.10.2017 05:00:00 7,2 4,9 - 26 14 - - WZW 999,5 50 0,0
12.10.2017 04:00:00 6,7 5,6 - 22 12 - - WZW 999,2 45 0,2

tt = temperatuur
td = dauwpunt
tt -20cm = temperatuur -20cm
ff = windsnelheid
fx = windstoten
dd = windrichting
ppp = luchtdruk
vv = zicht
rr = neerslag

Weerstations in de omgeving